Year,Month,Day,Hour,Minute,Value (Times are PST for temperature in C)
2013,08,20,00,00,15.20
2013,08,20,00,01,15.20
2013,08,20,00,02,15.20
2013,08,20,00,03,15.20
2013,08,20,00,04,15.20
2013,08,20,00,05,15.20
2013,08,20,00,06,15.20
2013,08,20,00,07,15.20
2013,08,20,00,08,15.20
2013,08,20,00,09,15.20
2013,08,20,00,10,15.20
2013,08,20,00,11,15.20
2013,08,20,00,12,15.20
2013,08,20,00,13,15.20
2013,08,20,00,14,15.20
2013,08,20,00,15,15.20
2013,08,20,00,16,15.20
2013,08,20,00,17,15.20
2013,08,20,00,18,15.20
2013,08,20,00,19,15.20
2013,08,20,00,20,15.20
2013,08,20,00,21,15.20
2013,08,20,00,22,15.20
2013,08,20,00,23,15.20
2013,08,20,00,24,15.20
2013,08,20,00,25,15.20
2013,08,20,00,26,15.10
2013,08,20,00,27,15.10
2013,08,20,00,28,15.10
2013,08,20,00,29,15.10
2013,08,20,00,30,15.10
2013,08,20,00,31,15.10
2013,08,20,00,32,15.10
2013,08,20,00,33,15.10
2013,08,20,00,34,15.10
2013,08,20,00,35,15.10
2013,08,20,00,36,15.10
2013,08,20,00,37,15.10
2013,08,20,00,38,15.10
2013,08,20,00,39,15.10
2013,08,20,00,40,15.10
2013,08,20,00,41,15.00
2013,08,20,00,42,15.00
2013,08,20,00,43,15.00
2013,08,20,00,44,15.00
2013,08,20,00,45,14.90
2013,08,20,00,46,14.90
2013,08,20,00,47,14.90
2013,08,20,00,48,14.90
2013,08,20,00,49,14.90
2013,08,20,00,50,14.90
2013,08,20,00,51,14.90
2013,08,20,00,52,14.80
2013,08,20,00,53,14.80
2013,08,20,00,54,14.80
2013,08,20,00,55,14.80
2013,08,20,00,56,14.80
2013,08,20,00,57,14.80
2013,08,20,00,58,14.80
2013,08,20,00,59,14.80
2013,08,20,01,00,14.80
2013,08,20,01,01,14.80
2013,08,20,01,02,14.80
2013,08,20,01,03,14.80
2013,08,20,01,04,14.80
2013,08,20,01,05,14.80
2013,08,20,01,06,14.80
2013,08,20,01,07,14.80
2013,08,20,01,08,14.80
2013,08,20,01,09,14.80
2013,08,20,01,10,14.80
2013,08,20,01,11,14.80
2013,08,20,01,12,14.80
2013,08,20,01,13,14.80
2013,08,20,01,14,14.80
2013,08,20,01,15,14.80
2013,08,20,01,16,14.80
2013,08,20,01,17,14.80
2013,08,20,01,18,14.80
2013,08,20,01,19,14.80
2013,08,20,01,20,14.80
2013,08,20,01,21,14.80
2013,08,20,01,22,14.80
2013,08,20,01,23,14.80
2013,08,20,01,24,14.80
2013,08,20,01,25,14.80
2013,08,20,01,26,14.80
2013,08,20,01,27,14.80
2013,08,20,01,28,14.80
2013,08,20,01,29,14.80
2013,08,20,01,30,14.80
2013,08,20,01,31,14.80
2013,08,20,01,32,14.80
2013,08,20,01,33,14.80
2013,08,20,01,34,14.80
2013,08,20,01,35,14.80
2013,08,20,01,36,14.80
2013,08,20,01,37,14.80
2013,08,20,01,38,14.80
2013,08,20,01,39,14.80
2013,08,20,01,40,14.80
2013,08,20,01,41,14.80
2013,08,20,01,42,14.80
2013,08,20,01,43,14.80
2013,08,20,01,44,14.80
2013,08,20,01,45,14.80
2013,08,20,01,46,14.80
2013,08,20,01,47,14.80
2013,08,20,01,48,14.80
2013,08,20,01,49,14.80
2013,08,20,01,50,14.80
2013,08,20,01,51,14.80
2013,08,20,01,52,14.80
2013,08,20,01,53,14.80
2013,08,20,01,54,14.80
2013,08,20,01,55,14.90
2013,08,20,01,56,14.90
2013,08,20,01,57,14.90
2013,08,20,01,58,14.90
2013,08,20,01,59,14.90
2013,08,20,02,00,14.90
2013,08,20,02,01,14.90
2013,08,20,02,02,14.90
2013,08,20,02,03,14.90
2013,08,20,02,04,14.90
2013,08,20,02,05,14.90
2013,08,20,02,06,14.90
2013,08,20,02,07,14.90
2013,08,20,02,08,14.90
2013,08,20,02,09,14.90
2013,08,20,02,10,14.90
2013,08,20,02,11,14.90
2013,08,20,02,12,14.90
2013,08,20,02,13,14.90
2013,08,20,02,14,14.90
2013,08,20,02,15,14.90
2013,08,20,02,16,14.90
2013,08,20,02,17,14.90
2013,08,20,02,18,14.90
2013,08,20,02,19,14.90
2013,08,20,02,20,14.90
2013,08,20,02,21,14.90
2013,08,20,02,22,14.90
2013,08,20,02,23,14.90
2013,08,20,02,24,14.90
2013,08,20,02,25,14.90
2013,08,20,02,26,14.90
2013,08,20,02,27,14.90
2013,08,20,02,28,14.90
2013,08,20,02,29,14.90
2013,08,20,02,30,14.90
2013,08,20,02,31,14.90
2013,08,20,02,32,14.90
2013,08,20,02,33,14.90
2013,08,20,02,34,14.90
2013,08,20,02,35,14.90
2013,08,20,02,36,14.90
2013,08,20,02,37,14.80
2013,08,20,02,38,14.90
2013,08,20,02,39,14.80
2013,08,20,02,40,14.80
2013,08,20,02,41,14.80
2013,08,20,02,42,14.80
2013,08,20,02,43,14.80
2013,08,20,02,44,14.80
2013,08,20,02,45,14.80
2013,08,20,02,46,14.80
2013,08,20,02,47,14.80
2013,08,20,02,48,14.80
2013,08,20,02,49,14.80
2013,08,20,02,50,14.80
2013,08,20,02,51,14.70
2013,08,20,02,52,14.70
2013,08,20,02,53,14.70
2013,08,20,02,54,14.70
2013,08,20,02,55,14.70
2013,08,20,02,56,14.70
2013,08,20,02,57,14.70
2013,08,20,02,58,14.70
2013,08,20,02,59,14.70
2013,08,20,03,00,14.70
2013,08,20,03,01,14.70
2013,08,20,03,02,14.70
2013,08,20,03,03,14.70
2013,08,20,03,04,14.70
2013,08,20,03,05,14.60
2013,08,20,03,06,14.60
2013,08,20,03,07,14.60
2013,08,20,03,08,14.50
2013,08,20,03,09,14.50
2013,08,20,03,10,14.40
2013,08,20,03,11,14.40
2013,08,20,03,12,14.40
2013,08,20,03,13,14.30
2013,08,20,03,14,14.30
2013,08,20,03,15,14.30
2013,08,20,03,16,14.20
2013,08,20,03,17,14.20
2013,08,20,03,18,14.20
2013,08,20,03,19,14.10
2013,08,20,03,20,14.10
2013,08,20,03,21,14.00
2013,08,20,03,22,14.00
2013,08,20,03,23,14.00
2013,08,20,03,24,13.90
2013,08,20,03,25,13.90
2013,08,20,03,26,13.80
2013,08,20,03,27,13.80
2013,08,20,03,28,13.80
2013,08,20,03,29,13.80
2013,08,20,03,30,13.70
2013,08,20,03,31,13.70
2013,08,20,03,32,13.70
2013,08,20,03,33,13.70
2013,08,20,03,34,13.60
2013,08,20,03,35,13.60
2013,08,20,03,36,13.60
2013,08,20,03,37,13.60
2013,08,20,03,38,13.50
2013,08,20,03,39,13.50
2013,08,20,03,40,13.50
2013,08,20,03,41,13.50
2013,08,20,03,42,13.40
2013,08,20,03,43,13.40
2013,08,20,03,44,13.40
2013,08,20,03,45,13.40
2013,08,20,03,46,13.40
2013,08,20,03,47,13.40
2013,08,20,03,48,13.40
2013,08,20,03,49,13.40
2013,08,20,03,50,13.40
2013,08,20,03,51,13.40
2013,08,20,03,52,13.40
2013,08,20,03,53,13.40
2013,08,20,03,54,13.40
2013,08,20,03,55,13.40
2013,08,20,03,56,13.40
2013,08,20,03,57,13.40
2013,08,20,03,58,13.40
2013,08,20,03,59,13.40
2013,08,20,04,00,13.40
2013,08,20,04,01,13.40
2013,08,20,04,02,13.40
2013,08,20,04,03,13.40
2013,08,20,04,04,13.40
2013,08,20,04,05,13.40
2013,08,20,04,06,13.40
2013,08,20,04,07,13.40
2013,08,20,04,08,13.40
2013,08,20,04,09,13.40
2013,08,20,04,10,13.40
2013,08,20,04,11,13.40
2013,08,20,04,12,13.40
2013,08,20,04,13,13.40
2013,08,20,04,14,13.40
2013,08,20,04,15,13.30
2013,08,20,04,16,13.40
2013,08,20,04,17,13.30
2013,08,20,04,18,13.30
2013,08,20,04,19,13.30
2013,08,20,04,20,13.30
2013,08,20,04,21,13.30
2013,08,20,04,22,13.30
2013,08,20,04,23,13.30
2013,08,20,04,24,13.30
2013,08,20,04,25,13.30
2013,08,20,04,26,13.30
2013,08,20,04,27,13.30
2013,08,20,04,28,13.30
2013,08,20,04,29,13.30
2013,08,20,04,30,13.30
2013,08,20,04,31,13.30
2013,08,20,04,32,13.30
2013,08,20,04,33,13.40
2013,08,20,04,34,13.40
2013,08,20,04,35,13.40
2013,08,20,04,36,13.40
2013,08,20,04,37,13.40
2013,08,20,04,38,13.40
2013,08,20,04,39,13.40
2013,08,20,04,40,13.40
2013,08,20,04,41,13.40
2013,08,20,04,42,13.40
2013,08,20,04,43,13.40
2013,08,20,04,44,13.40
2013,08,20,04,45,13.40
2013,08,20,04,46,13.40
2013,08,20,04,47,13.40
2013,08,20,04,48,13.40
2013,08,20,04,49,13.40
2013,08,20,04,50,13.40
2013,08,20,04,51,13.40
2013,08,20,04,52,13.40
2013,08,20,04,53,13.40
2013,08,20,04,54,13.40
2013,08,20,04,55,13.40
2013,08,20,04,56,13.40
2013,08,20,04,57,13.40
2013,08,20,04,58,13.40
2013,08,20,04,59,13.40
2013,08,20,05,00,13.40
2013,08,20,05,01,13.40
2013,08,20,05,02,13.40
2013,08,20,05,03,13.40
2013,08,20,05,04,13.40
2013,08,20,05,05,13.40
2013,08,20,05,06,13.40
2013,08,20,05,07,13.40
2013,08,20,05,08,13.40
2013,08,20,05,09,13.40
2013,08,20,05,10,13.40
2013,08,20,05,11,13.40
2013,08,20,05,12,13.40
2013,08,20,05,13,13.40
2013,08,20,05,14,13.50
2013,08,20,05,15,13.50
2013,08,20,05,16,13.50
2013,08,20,05,17,13.50
2013,08,20,05,18,13.50
2013,08,20,05,19,13.50
2013,08,20,05,20,13.50
2013,08,20,05,21,13.50
2013,08,20,05,22,13.50
2013,08,20,05,23,13.50
2013,08,20,05,24,13.50
2013,08,20,05,25,13.40
2013,08,20,05,26,13.40
2013,08,20,05,27,13.40
2013,08,20,05,28,13.40
2013,08,20,05,29,13.40
2013,08,20,05,30,13.40
2013,08,20,05,31,13.40
2013,08,20,05,32,13.40
2013,08,20,05,33,13.40
2013,08,20,05,34,13.30
2013,08,20,05,35,13.30
2013,08,20,05,36,13.30
2013,08,20,05,37,13.30
2013,08,20,05,38,13.30
2013,08,20,05,39,13.30
2013,08,20,05,40,13.30
2013,08,20,05,41,13.30
2013,08,20,05,42,13.20
2013,08,20,05,43,13.20
2013,08,20,05,44,13.20
2013,08,20,05,45,13.20
2013,08,20,05,46,13.20
2013,08,20,05,47,13.20
2013,08,20,05,48,13.20
2013,08,20,05,49,13.10
2013,08,20,05,50,13.10
2013,08,20,05,51,13.10
2013,08,20,05,52,13.10
2013,08,20,05,53,13.10
2013,08,20,05,54,13.10
2013,08,20,05,55,13.10
2013,08,20,05,56,13.10
2013,08,20,05,57,13.10
2013,08,20,05,58,13.00
2013,08,20,05,59,13.00
2013,08,20,06,00,13.00
2013,08,20,06,01,12.90
2013,08,20,06,02,12.90
2013,08,20,06,03,12.90
2013,08,20,06,04,12.90
2013,08,20,06,05,12.90
2013,08,20,06,06,12.90
2013,08,20,06,07,12.80
2013,08,20,06,08,12.80
2013,08,20,06,09,12.80
2013,08,20,06,10,12.80
2013,08,20,06,11,12.80
2013,08,20,06,12,12.80
2013,08,20,06,13,12.80
2013,08,20,06,14,12.70
2013,08,20,06,15,12.70
2013,08,20,06,16,12.70
2013,08,20,06,17,12.70
2013,08,20,06,18,12.70
2013,08,20,06,19,12.70
2013,08,20,06,20,12.60
2013,08,20,06,21,12.60
2013,08,20,06,22,12.60
2013,08,20,06,23,12.60
2013,08,20,06,24,12.60
2013,08,20,06,25,12.60
2013,08,20,06,26,12.60
2013,08,20,06,27,12.60
2013,08,20,06,28,12.60
2013,08,20,06,29,12.60
2013,08,20,06,30,12.60
2013,08,20,06,31,12.50
2013,08,20,06,32,12.50
2013,08,20,06,33,12.50
2013,08,20,06,34,12.50
2013,08,20,06,35,12.50
2013,08,20,06,36,12.50
2013,08,20,06,37,12.50
2013,08,20,06,38,12.50
2013,08,20,06,39,12.50
2013,08,20,06,40,12.60
2013,08,20,06,41,12.60
2013,08,20,06,42,12.60
2013,08,20,06,43,12.60
2013,08,20,06,44,12.60
2013,08,20,06,45,12.60
2013,08,20,06,46,12.60
2013,08,20,06,47,12.60
2013,08,20,06,48,12.60
2013,08,20,06,49,12.60
2013,08,20,06,50,12.60
2013,08,20,06,51,12.60
2013,08,20,06,52,12.60
2013,08,20,06,53,12.60
2013,08,20,06,54,12.70
2013,08,20,06,55,12.70
2013,08,20,06,56,12.70
2013,08,20,06,57,12.70
2013,08,20,06,58,12.70
2013,08,20,06,59,12.70
2013,08,20,07,00,12.70
2013,08,20,07,01,12.70
2013,08,20,07,02,12.70
2013,08,20,07,03,12.80
2013,08,20,07,04,12.80
2013,08,20,07,05,12.80
2013,08,20,07,06,12.80
2013,08,20,07,07,12.80
2013,08,20,07,08,12.80
2013,08,20,07,09,12.80
2013,08,20,07,10,12.80
2013,08,20,07,11,12.80
2013,08,20,07,12,12.90
2013,08,20,07,13,12.90
2013,08,20,07,14,12.90
2013,08,20,07,15,12.90
2013,08,20,07,16,12.90
2013,08,20,07,17,12.90
2013,08,20,07,18,13.00
2013,08,20,07,19,13.00
2013,08,20,07,20,13.00
2013,08,20,07,21,13.10
2013,08,20,07,22,13.10
2013,08,20,07,23,13.10
2013,08,20,07,24,13.10
2013,08,20,07,25,13.10
2013,08,20,07,26,13.10
2013,08,20,07,27,13.10
2013,08,20,07,28,13.10
2013,08,20,07,29,13.10
2013,08,20,07,30,13.20
2013,08,20,07,31,13.20
2013,08,20,07,32,13.20
2013,08,20,07,33,13.20
2013,08,20,07,34,13.20
2013,08,20,07,35,13.20
2013,08,20,07,36,13.30
2013,08,20,07,37,13.30
2013,08,20,07,38,13.30
2013,08,20,07,39,13.40
2013,08,20,07,40,13.40
2013,08,20,07,41,13.40
2013,08,20,07,42,13.40
2013,08,20,07,43,13.50
2013,08,20,07,44,13.50
2013,08,20,07,45,13.50
2013,08,20,07,46,13.60
2013,08,20,07,47,13.60
2013,08,20,07,48,13.60
2013,08,20,07,49,13.70
2013,08,20,07,50,13.70
2013,08,20,07,51,13.80
2013,08,20,07,52,13.80
2013,08,20,07,53,13.90
2013,08,20,07,54,13.90
2013,08,20,07,55,14.00
2013,08,20,07,56,14.00
2013,08,20,07,57,14.10
2013,08,20,07,58,14.10
2013,08,20,07,59,14.20
2013,08,20,08,00,14.20
2013,08,20,08,01,14.20
2013,08,20,08,02,14.30
2013,08,20,08,03,14.30
2013,08,20,08,04,14.40
2013,08,20,08,05,14.40
2013,08,20,08,06,14.50
2013,08,20,08,07,14.50
2013,08,20,08,08,14.60
2013,08,20,08,09,14.60
2013,08,20,08,10,14.70
2013,08,20,08,11,14.70
2013,08,20,08,12,14.70
2013,08,20,08,13,14.80
2013,08,20,08,14,14.80
2013,08,20,08,15,14.90
2013,08,20,08,16,14.90
2013,08,20,08,17,15.00
2013,08,20,08,18,15.00
2013,08,20,08,19,15.10
2013,08,20,08,20,15.10
2013,08,20,08,21,15.20
2013,08,20,08,22,15.20
2013,08,20,08,23,15.20
2013,08,20,08,24,15.30
2013,08,20,08,25,15.30
2013,08,20,08,26,15.30
2013,08,20,08,27,15.30
2013,08,20,08,28,15.40
2013,08,20,08,29,15.40
2013,08,20,08,30,15.50
2013,08,20,08,31,15.50
2013,08,20,08,32,15.60
2013,08,20,08,33,15.60
2013,08,20,08,34,15.70
2013,08,20,08,35,15.80
2013,08,20,08,36,15.80
2013,08,20,08,37,15.90
2013,08,20,08,38,16.00
2013,08,20,08,39,16.10
2013,08,20,08,40,16.10
2013,08,20,08,41,16.20
2013,08,20,08,42,16.30
2013,08,20,08,43,16.30
2013,08,20,08,44,16.40
2013,08,20,08,45,16.50
2013,08,20,08,46,16.60
2013,08,20,08,47,16.60
2013,08,20,08,48,16.70
2013,08,20,08,49,16.80
2013,08,20,08,50,16.80
2013,08,20,08,51,16.90
2013,08,20,08,52,17.00
2013,08,20,08,53,17.00
2013,08,20,08,54,17.10
2013,08,20,08,55,17.10
2013,08,20,08,56,17.20
2013,08,20,08,57,17.20
2013,08,20,08,58,17.30
2013,08,20,08,59,17.30
2013,08,20,09,00,17.30
2013,08,20,09,01,17.40
2013,08,20,09,02,17.40
2013,08,20,09,03,17.40
2013,08,20,09,04,17.40
2013,08,20,09,05,17.40
2013,08,20,09,06,17.40
2013,08,20,09,07,17.40
2013,08,20,09,08,17.40
2013,08,20,09,09,17.40
2013,08,20,09,10,17.50
2013,08,20,09,11,17.50
2013,08,20,09,12,17.50
2013,08,20,09,13,17.60
2013,08,20,09,14,17.60
2013,08,20,09,15,17.60
2013,08,20,09,16,17.70
2013,08,20,09,17,17.70
2013,08,20,09,18,17.80
2013,08,20,09,19,17.80
2013,08,20,09,20,17.90
2013,08,20,09,21,18.00
2013,08,20,09,22,18.10
2013,08,20,09,23,18.20
2013,08,20,09,24,18.30
2013,08,20,09,25,18.30
2013,08,20,09,26,18.40
2013,08,20,09,27,18.50
2013,08,20,09,28,18.60
2013,08,20,09,29,18.70
2013,08,20,09,30,18.80
2013,08,20,09,31,18.90
2013,08,20,09,32,19.00
2013,08,20,09,33,19.10
2013,08,20,09,34,19.10
2013,08,20,09,35,19.20
2013,08,20,09,36,19.20
2013,08,20,09,37,19.20
2013,08,20,09,38,19.20
2013,08,20,09,39,19.30
2013,08,20,09,40,19.30
2013,08,20,09,41,19.30
2013,08,20,09,42,19.40
2013,08,20,09,43,19.40
2013,08,20,09,44,19.40
2013,08,20,09,45,19.50
2013,08,20,09,46,19.50
2013,08,20,09,47,19.60
2013,08,20,09,48,19.60
2013,08,20,09,49,19.60
2013,08,20,09,50,19.60
2013,08,20,09,51,19.70
2013,08,20,09,52,19.70
2013,08,20,09,53,19.70
2013,08,20,09,54,19.80
2013,08,20,09,55,19.90
2013,08,20,09,56,19.90
2013,08,20,09,57,20.00
2013,08,20,09,58,20.00
2013,08,20,09,59,20.10
2013,08,20,10,00,20.20
2013,08,20,10,01,20.20
2013,08,20,10,02,20.30
2013,08,20,10,03,20.30
2013,08,20,10,04,20.30
2013,08,20,10,05,20.40
2013,08,20,10,06,20.40
2013,08,20,10,07,20.50
2013,08,20,10,08,20.60
2013,08,20,10,09,20.70
2013,08,20,10,10,20.80
2013,08,20,10,11,20.80
2013,08,20,10,12,20.90
2013,08,20,10,13,21.00
2013,08,20,10,14,21.00
2013,08,20,10,15,21.00
2013,08,20,10,16,21.00
2013,08,20,10,17,21.00
2013,08,20,10,18,21.10
2013,08,20,10,19,21.10
2013,08,20,10,20,21.10
2013,08,20,10,21,21.20
2013,08,20,10,22,21.30
2013,08,20,10,23,21.40
2013,08,20,10,24,21.50
2013,08,20,10,25,21.60
2013,08,20,10,26,21.60
2013,08,20,10,27,21.70
2013,08,20,10,28,21.70
2013,08,20,10,29,21.80
2013,08,20,10,30,21.80
2013,08,20,10,31,21.80
2013,08,20,10,32,21.80
2013,08,20,10,33,21.90
2013,08,20,10,34,21.90
2013,08,20,10,35,22.00
2013,08,20,10,36,22.00
2013,08,20,10,37,22.10
2013,08,20,10,38,22.10
2013,08,20,10,39,22.10
2013,08,20,10,40,22.20
2013,08,20,10,41,22.20
2013,08,20,10,42,22.20
2013,08,20,10,43,22.20
2013,08,20,10,44,22.10
2013,08,20,10,45,22.00
2013,08,20,10,46,21.90
2013,08,20,10,47,21.90
2013,08,20,10,48,21.90
2013,08,20,10,49,21.80
2013,08,20,10,50,21.90
2013,08,20,10,51,21.90
2013,08,20,10,52,21.90
2013,08,20,10,53,22.00
2013,08,20,10,54,22.00
2013,08,20,10,55,22.10
2013,08,20,10,56,22.10
2013,08,20,10,57,22.20
2013,08,20,10,58,22.20
2013,08,20,10,59,22.20
2013,08,20,11,00,22.20
2013,08,20,11,01,22.20
2013,08,20,11,02,22.20
2013,08,20,11,03,22.30
2013,08,20,11,04,22.30
2013,08,20,11,05,22.40
2013,08,20,11,06,22.40
2013,08,20,11,07,22.50
2013,08,20,11,08,22.60
2013,08,20,11,09,22.60
2013,08,20,11,10,22.60
2013,08,20,11,11,22.50
2013,08,20,11,12,22.60
2013,08,20,11,13,22.60
2013,08,20,11,14,22.60
2013,08,20,11,15,22.60
2013,08,20,11,16,22.60
2013,08,20,11,17,22.70
2013,08,20,11,18,22.70
2013,08,20,11,19,22.70
2013,08,20,11,20,22.70
2013,08,20,11,21,22.80
2013,08,20,11,22,22.80
2013,08,20,11,23,22.90
2013,08,20,11,24,22.90
2013,08,20,11,25,23.00
2013,08,20,11,26,23.00
2013,08,20,11,27,23.00
2013,08,20,11,28,23.00
2013,08,20,11,29,23.10
2013,08,20,11,30,23.10
2013,08,20,11,31,23.10
2013,08,20,11,32,23.20
2013,08,20,11,33,23.20
2013,08,20,11,34,23.20
2013,08,20,11,35,23.20
2013,08,20,11,36,23.20
2013,08,20,11,37,23.30
2013,08,20,11,38,23.20
2013,08,20,11,39,23.20
2013,08,20,11,40,23.20
2013,08,20,11,41,23.20
2013,08,20,11,42,23.20
2013,08,20,11,43,23.10
2013,08,20,11,44,23.00
2013,08,20,11,45,22.90
2013,08,20,11,46,22.80
2013,08,20,11,47,22.80
2013,08,20,11,48,22.70
2013,08,20,11,49,22.70
2013,08,20,11,50,22.70
2013,08,20,11,51,22.70
2013,08,20,11,52,22.70
2013,08,20,11,53,22.70
2013,08,20,11,54,22.70
2013,08,20,11,55,22.70
2013,08,20,11,56,22.70
2013,08,20,11,57,22.70
2013,08,20,11,58,22.60
2013,08,20,11,59,22.60
2013,08,20,12,00,22.60
2013,08,20,12,01,22.50
2013,08,20,12,02,22.50
2013,08,20,12,03,22.50
2013,08,20,12,04,22.60
2013,08,20,12,05,22.70
2013,08,20,12,06,22.70
2013,08,20,12,07,22.70
2013,08,20,12,08,22.70
2013,08,20,12,09,22.80
2013,08,20,12,10,22.80
2013,08,20,12,11,22.80
2013,08,20,12,12,22.80
2013,08,20,12,13,22.80
2013,08,20,12,14,22.90
2013,08,20,12,15,22.80
2013,08,20,12,16,22.80
2013,08,20,12,17,22.70
2013,08,20,12,18,22.70
2013,08,20,12,19,22.70
2013,08,20,12,20,22.70
2013,08,20,12,21,22.70
2013,08,20,12,22,22.70
2013,08,20,12,23,22.80
2013,08,20,12,24,22.80
2013,08,20,12,25,22.90
2013,08,20,12,26,22.90
2013,08,20,12,27,23.00
2013,08,20,12,28,23.00
2013,08,20,12,29,23.10
2013,08,20,12,30,23.20
2013,08,20,12,31,23.20
2013,08,20,12,32,23.20
2013,08,20,12,33,23.20
2013,08,20,12,34,23.20
2013,08,20,12,35,23.20
2013,08,20,12,36,23.20
2013,08,20,12,37,23.20
2013,08,20,12,38,23.30
2013,08,20,12,39,23.30
2013,08,20,12,40,23.40
2013,08,20,12,41,23.50
2013,08,20,12,42,23.50
2013,08,20,12,43,23.60
2013,08,20,12,44,23.60
2013,08,20,12,45,23.70
2013,08,20,12,46,23.70
2013,08,20,12,47,23.70
2013,08,20,12,48,23.60
2013,08,20,12,49,23.60
2013,08,20,12,50,23.60
2013,08,20,12,51,23.50
2013,08,20,12,52,23.50
2013,08,20,12,53,23.50
2013,08,20,12,54,23.40
2013,08,20,12,55,23.40
2013,08,20,12,56,23.50
2013,08,20,12,57,23.50
2013,08,20,12,58,23.60
2013,08,20,12,59,23.60
2013,08,20,13,00,23.60
2013,08,20,13,01,23.60
2013,08,20,13,02,23.60
2013,08,20,13,03,23.60
2013,08,20,13,04,23.60
2013,08,20,13,05,23.60
2013,08,20,13,06,23.70
2013,08,20,13,07,23.70
2013,08,20,13,08,23.70
2013,08,20,13,09,23.70
2013,08,20,13,10,23.70
2013,08,20,13,11,23.70
2013,08,20,13,12,23.70
2013,08,20,13,13,23.70
2013,08,20,13,14,23.70
2013,08,20,13,15,23.80
2013,08,20,13,16,23.80
2013,08,20,13,17,23.80
2013,08,20,13,18,23.90
2013,08,20,13,19,23.90
2013,08,20,13,20,23.90
2013,08,20,13,21,23.90
2013,08,20,13,22,23.90
2013,08,20,13,23,24.00
2013,08,20,13,24,24.00
2013,08,20,13,25,24.00
2013,08,20,13,26,24.10
2013,08,20,13,27,24.10
2013,08,20,13,28,24.10
2013,08,20,13,29,24.10
2013,08,20,13,30,24.20
2013,08,20,13,31,24.20
2013,08,20,13,32,24.20
2013,08,20,13,33,24.20
2013,08,20,13,34,24.10
2013,08,20,13,35,24.10
2013,08,20,13,36,24.10
2013,08,20,13,37,24.10
2013,08,20,13,38,24.10
2013,08,20,13,39,24.00
2013,08,20,13,40,24.00
2013,08,20,13,41,23.90
2013,08,20,13,42,23.90
2013,08,20,13,43,23.90
2013,08,20,13,44,23.90
2013,08,20,13,45,23.90
2013,08,20,13,46,24.00
2013,08,20,13,47,24.00
2013,08,20,13,48,24.10
2013,08,20,13,49,24.10
2013,08,20,13,50,24.10
2013,08,20,13,51,24.10
2013,08,20,13,52,24.10
2013,08,20,13,53,24.10
2013,08,20,13,54,24.10
2013,08,20,13,55,24.10
2013,08,20,13,56,24.00
2013,08,20,13,57,23.90
2013,08,20,13,58,23.90
2013,08,20,13,59,23.90
2013,08,20,14,00,23.90
2013,08,20,14,01,23.90
2013,08,20,14,02,23.90
2013,08,20,14,03,24.00
2013,08,20,14,04,24.00
2013,08,20,14,05,23.90
2013,08,20,14,06,23.90
2013,08,20,14,07,23.80
2013,08,20,14,08,23.70
2013,08,20,14,09,23.70
2013,08,20,14,10,23.60
2013,08,20,14,11,23.60
2013,08,20,14,12,23.60
2013,08,20,14,13,23.70
2013,08,20,14,14,23.70
2013,08,20,14,15,23.80
2013,08,20,14,16,23.80
2013,08,20,14,17,23.90
2013,08,20,14,18,23.90
2013,08,20,14,19,23.90
2013,08,20,14,20,23.80
2013,08,20,14,21,23.80
2013,08,20,14,22,23.80
2013,08,20,14,23,23.80
2013,08,20,14,24,23.80
2013,08,20,14,25,23.90
2013,08,20,14,26,23.90
2013,08,20,14,27,23.90
2013,08,20,14,28,23.90
2013,08,20,14,29,23.90
2013,08,20,14,30,23.90
2013,08,20,14,31,23.90
2013,08,20,14,32,23.90
2013,08,20,14,33,24.00
2013,08,20,14,34,24.00
2013,08,20,14,35,24.00
2013,08,20,14,36,24.10
2013,08,20,14,37,24.10
2013,08,20,14,38,24.10
2013,08,20,14,39,24.20
2013,08,20,14,40,24.20
2013,08,20,14,41,24.20
2013,08,20,14,42,24.20
2013,08,20,14,43,24.20
2013,08,20,14,44,24.30
2013,08,20,14,45,24.30
2013,08,20,14,46,24.30
2013,08,20,14,47,24.40
2013,08,20,14,48,24.40
2013,08,20,14,49,24.40
2013,08,20,14,50,24.40
2013,08,20,14,51,24.30
2013,08,20,14,52,24.30
2013,08,20,14,53,24.20
2013,08,20,14,54,24.10
2013,08,20,14,55,24.10
2013,08,20,14,56,24.10
2013,08,20,14,57,24.00
2013,08,20,14,58,24.10
2013,08,20,14,59,24.10
2013,08,20,15,00,24.10
2013,08,20,15,01,24.10
2013,08,20,15,02,24.10
2013,08,20,15,03,24.00
2013,08,20,15,04,24.00
2013,08,20,15,05,24.00
2013,08,20,15,06,23.90
2013,08,20,15,07,23.90
2013,08,20,15,08,23.90
2013,08,20,15,09,23.90
2013,08,20,15,10,23.90
2013,08,20,15,11,24.00
2013,08,20,15,12,24.10
2013,08,20,15,13,24.10
2013,08,20,15,14,24.20
2013,08,20,15,15,24.10
2013,08,20,15,16,24.10
2013,08,20,15,17,24.10
2013,08,20,15,18,24.20
2013,08,20,15,19,24.20
2013,08,20,15,20,24.20
2013,08,20,15,21,24.30
2013,08,20,15,22,24.30
2013,08,20,15,23,24.30
2013,08,20,15,24,24.30
2013,08,20,15,25,24.30
2013,08,20,15,26,24.30
2013,08,20,15,27,24.30
2013,08,20,15,28,24.30
2013,08,20,15,29,24.30
2013,08,20,15,30,24.20
2013,08,20,15,31,24.20
2013,08,20,15,32,24.10
2013,08,20,15,33,24.10
2013,08,20,15,34,24.10
2013,08,20,15,35,24.10
2013,08,20,15,36,24.10
2013,08,20,15,37,24.00
2013,08,20,15,38,24.00
2013,08,20,15,39,23.90
2013,08,20,15,40,23.90
2013,08,20,15,41,23.80
2013,08,20,15,42,23.80
2013,08,20,15,43,23.80
2013,08,20,15,44,23.80
2013,08,20,15,45,23.80
2013,08,20,15,46,23.80
2013,08,20,15,47,23.70
2013,08,20,15,48,23.70
2013,08,20,15,49,23.70
2013,08,20,15,50,23.60
2013,08,20,15,51,23.60
2013,08,20,15,52,23.60
2013,08,20,15,53,23.60
2013,08,20,15,54,23.70
2013,08,20,15,55,23.70
2013,08,20,15,56,23.70
2013,08,20,15,57,23.80
2013,08,20,15,58,23.80
2013,08,20,15,59,23.90
2013,08,20,16,00,24.00
2013,08,20,16,01,24.00
2013,08,20,16,02,24.10
2013,08,20,16,03,24.10
2013,08,20,16,04,24.20
2013,08,20,16,05,24.20
2013,08,20,16,06,24.30
2013,08,20,16,07,24.30
2013,08,20,16,08,24.30
2013,08,20,16,09,24.30
2013,08,20,16,10,24.40
2013,08,20,16,11,24.40
2013,08,20,16,12,24.40
2013,08,20,16,13,24.50
2013,08,20,16,14,24.50
2013,08,20,16,15,24.50
2013,08,20,16,16,24.50
2013,08,20,16,17,24.40
2013,08,20,16,18,24.40
2013,08,20,16,19,24.40
2013,08,20,16,20,24.40
2013,08,20,16,21,24.40
2013,08,20,16,22,24.50
2013,08,20,16,23,24.50
2013,08,20,16,24,24.50
2013,08,20,16,25,24.60
2013,08,20,16,26,24.60
2013,08,20,16,27,24.60
2013,08,20,16,28,24.60
2013,08,20,16,29,24.60
2013,08,20,16,30,24.70
2013,08,20,16,31,24.70
2013,08,20,16,32,24.70
2013,08,20,16,33,24.70
2013,08,20,16,34,24.70
2013,08,20,16,35,24.70
2013,08,20,16,36,24.70
2013,08,20,16,37,24.70
2013,08,20,16,38,24.70
2013,08,20,16,39,24.70
2013,08,20,16,40,24.70
2013,08,20,16,41,24.70
2013,08,20,16,42,24.70
2013,08,20,16,43,24.70
2013,08,20,16,44,24.70
2013,08,20,16,45,24.70
2013,08,20,16,46,24.60
2013,08,20,16,47,24.60
2013,08,20,16,48,24.60
2013,08,20,16,49,24.50
2013,08,20,16,50,24.40
2013,08,20,16,51,24.50
2013,08,20,16,52,24.50
2013,08,20,16,53,24.40
2013,08,20,16,54,24.40
2013,08,20,16,55,24.40
2013,08,20,16,56,24.40
2013,08,20,16,57,24.40
2013,08,20,16,58,24.40
2013,08,20,16,59,24.40
2013,08,20,17,00,24.40
2013,08,20,17,01,24.40
2013,08,20,17,02,24.40
2013,08,20,17,03,24.30
2013,08,20,17,04,24.30
2013,08,20,17,05,24.30
2013,08,20,17,06,24.20
2013,08,20,17,07,24.20
2013,08,20,17,08,24.20
2013,08,20,17,09,24.20
2013,08,20,17,10,24.30
2013,08,20,17,11,24.30
2013,08,20,17,12,24.30
2013,08,20,17,13,24.40
2013,08,20,17,14,24.40
2013,08,20,17,15,24.40
2013,08,20,17,16,24.40
2013,08,20,17,17,24.40
2013,08,20,17,18,24.40
2013,08,20,17,19,24.40